UAE65 EGLL-LIRF

Flight info

Callsign UAE65
Flight time N/A
Altitude 35000
Route MODMI M185 MID L612 BOGNA UL612 OGULO DCT OKASI DCT OKEKO DCT MOU DCT MADIV DCT MOKIP DCT TUFTA DCT KOGAS DCT MEDAM DCT NITAM DCT MOGBO DCT ELB DCT ELKAP
Aircraft A388/J-SADE2E3FGHIJ3J4J5M1RWXY/L

Departure

Time 2026-05-05 19:07
Airport London Heathrow Airport (EGLL)

Arrival

Time N/A
Airport Rome–Fiumicino Leonardo da Vinci International Airport (LIRF)
Time Latitude Longitude Altitude Speed Heading
2026-05-05 18:41 51.46834 -0.45445 91 ft 0 kts 360°
2026-05-05 18:55 51.46817 -0.45443 92 ft 2 kts 355°
2026-05-05 18:55 51.46801 -0.45438 95 ft 2 kts 347°
2026-05-05 18:55 51.46786 -0.45429 92 ft 2 kts 336°
2026-05-05 18:56 51.46772 -0.45415 94 ft 2 kts 323°
2026-05-05 18:56 51.46761 -0.45395 94 ft 2 kts 308°
2026-05-05 18:56 51.46754 -0.45372 94 ft 2 kts 293°
2026-05-05 18:56 51.46750 -0.45346 94 ft 2 kts 279°
2026-05-05 18:57 51.46750 -0.45332 93 ft 0 kts 271°
2026-05-05 18:58 51.46750 -0.45333 93 ft 1 kts 271°
2026-05-05 18:58 51.46750 -0.45384 93 ft 7 kts 270°
2026-05-05 18:58 51.46750 -0.45490 91 ft 12 kts 269°
2026-05-05 18:58 51.46749 -0.45635 94 ft 14 kts 269°
2026-05-05 18:59 51.46749 -0.45796 94 ft 16 kts 270°
2026-05-05 18:59 51.46748 -0.45987 94 ft 18 kts 270°
2026-05-05 18:59 51.46748 -0.46178 95 ft 17 kts 270°
2026-05-05 18:59 51.46747 -0.46378 95 ft 19 kts 270°
2026-05-05 19:00 51.46748 -0.46580 93 ft 15 kts 269°
2026-05-05 19:00 51.46748 -0.46767 95 ft 18 kts 270°
2026-05-05 19:00 51.46747 -0.46979 95 ft 20 kts 270°
2026-05-05 19:00 51.46746 -0.47194 95 ft 18 kts 270°
2026-05-05 19:01 51.46746 -0.47398 95 ft 17 kts 270°
2026-05-05 19:01 51.46745 -0.47557 94 ft 15 kts 269°
2026-05-05 19:01 51.46744 -0.47713 93 ft 14 kts 270°
2026-05-05 19:01 51.46744 -0.47862 91 ft 14 kts 269°
2026-05-05 19:02 51.46743 -0.47994 92 ft 10 kts 269°
2026-05-05 19:02 51.46743 -0.48051 92 ft 0 kts 270°
2026-05-05 19:02 51.46743 -0.48063 93 ft 7 kts 270°
2026-05-05 19:02 51.46743 -0.48211 93 ft 13 kts 270°
2026-05-05 19:03 51.46742 -0.48356 91 ft 15 kts 270°
2026-05-05 19:03 51.46742 -0.48528 91 ft 15 kts 270°
2026-05-05 19:03 51.46741 -0.48675 91 ft 12 kts 263°
2026-05-05 19:03 51.46702 -0.48744 95 ft 7 kts 188°
2026-05-05 19:04 51.46679 -0.48746 93 ft 0 kts 180°
2026-05-05 19:04 51.46671 -0.48746 93 ft 4 kts 180°
2026-05-05 19:05 51.46634 -0.48749 91 ft 5 kts 195°
2026-05-05 19:05 51.46619 -0.48757 93 ft 0 kts 198°
2026-05-05 19:05 51.46617 -0.48758 93 ft 2 kts 198°
2026-05-05 19:06 51.46586 -0.48774 93 ft 8 kts 198°
2026-05-05 19:06 51.46512 -0.48771 96 ft 12 kts 147°
2026-05-05 19:06 51.46478 -0.48686 95 ft 0 kts 88°
2026-05-05 19:06 51.46479 -0.48519 91 ft 50 kts 89°
2026-05-05 19:07 51.46484 -0.47521 93 ft 124 kts 90°
2026-05-05 19:07 51.46487 -0.45880 125 ft 164 kts 88°
2026-05-05 19:07 51.46485 -0.44042 668 ft 162 kts 88°
2026-05-05 19:07 51.46503 -0.42253 1314 ft 160 kts 88°
2026-05-05 19:08 51.46284 -0.40505 1831 ft 163 kts 114°
2026-05-05 19:08 51.45660 -0.38969 2377 ft 168 kts 124°
2026-05-05 19:08 51.44849 -0.37589 2965 ft 175 kts 144°
2026-05-05 19:08 51.43735 -0.36739 3591 ft 179 kts 157°
2026-05-05 19:09 51.42527 -0.36057 4041 ft 192 kts 159°
2026-05-05 19:09 51.41208 -0.35351 4287 ft 210 kts 162°
2026-05-05 19:09 51.39662 -0.35240 4622 ft 237 kts 194°
2026-05-05 19:09 51.38117 -0.36424 5071 ft 258 kts 212°
2026-05-05 19:10 51.36537 -0.38001 5612 ft 276 kts 212°
2026-05-05 19:10 51.34861 -0.39539 6494 ft 279 kts 210°
2026-05-05 19:10 51.33131 -0.40995 7340 ft 283 kts 208°
2026-05-05 19:10 51.31351 -0.42413 8163 ft 288 kts 207°
2026-05-05 19:11 51.29552 -0.43815 9021 ft 291 kts 207°
2026-05-05 19:11 51.27722 -0.45232 9909 ft 294 kts 207°
2026-05-05 19:11 51.25849 -0.46681 10431 ft 308 kts 206°
2026-05-05 19:11 51.23850 -0.48230 10663 ft 330 kts 206°
2026-05-05 19:12 51.21727 -0.49874 11013 ft 345 kts 206°
2026-05-05 19:12 51.19579 -0.51538 11700 ft 349 kts 206°
2026-05-05 19:12 51.17383 -0.53239 12407 ft 353 kts 206°
2026-05-05 19:12 51.15166 -0.54955 13116 ft 356 kts 206°
2026-05-05 19:13 51.12933 -0.56681 13839 ft 359 kts 206°
2026-05-05 19:13 51.10668 -0.58430 14427 ft 363 kts 206°
2026-05-05 19:13 51.08362 -0.60131 15017 ft 367 kts 199°
2026-05-05 19:13 51.05858 -0.60855 15671 ft 369 kts 180°
2026-05-05 19:14 51.03331 -0.60213 16338 ft 370 kts 160°
2026-05-05 19:14 51.01033 -0.58342 16884 ft 374 kts 146°
2026-05-05 19:14 50.98894 -0.55967 17497 ft 377 kts 143°
2026-05-05 19:14 50.96767 -0.53514 18098 ft 380 kts 143°
2026-05-05 19:15 50.94598 -0.51068 18602 ft 384 kts 144°
2026-05-05 19:15 50.92389 -0.48647 19117 ft 387 kts 145°
2026-05-05 19:15 50.90159 -0.46250 19616 ft 390 kts 146°
2026-05-05 19:15 50.87900 -0.43846 20112 ft 393 kts 146°
2026-05-05 19:16 50.85618 -0.41430 20595 ft 396 kts 146°
2026-05-05 19:16 50.83320 -0.39000 21085 ft 399 kts 146°
2026-05-05 19:16 50.81007 -0.36554 21565 ft 402 kts 146°
2026-05-05 19:16 50.78675 -0.34091 22042 ft 405 kts 146°
2026-05-05 19:17 50.76323 -0.31609 22511 ft 408 kts 146°
2026-05-05 19:17 50.73958 -0.29117 22981 ft 411 kts 146°
2026-05-05 19:17 50.71567 -0.26600 23454 ft 414 kts 146°
2026-05-05 19:17 50.69166 -0.24075 23882 ft 416 kts 146°
2026-05-05 19:18 50.66759 -0.21547 24336 ft 417 kts 146°
2026-05-05 19:18 50.64342 -0.19011 24783 ft 418 kts 146°
2026-05-05 19:18 50.61909 -0.16464 25230 ft 420 kts 146°
2026-05-05 19:18 50.59502 -0.13944 25692 ft 421 kts 146°
2026-05-05 19:19 50.57059 -0.11389 26169 ft 423 kts 146°
2026-05-05 19:19 50.54602 -0.08824 26675 ft 425 kts 146°
2026-05-05 19:19 50.52133 -0.06248 27190 ft 427 kts 147°
2026-05-05 19:19 50.49657 -0.03670 27716 ft 428 kts 147°
2026-05-05 19:20 50.48006 -0.01953 28056 ft 430 kts 147°
2026-05-05 19:20 50.45502 0.00649 28598 ft 431 kts 147°
2026-05-05 19:20 50.42988 0.03257 28924 ft 434 kts 147°
2026-05-05 19:20 50.40464 0.05870 28923 ft 434 kts 146°
2026-05-05 19:21 50.35426 0.11079 28966 ft 434 kts 147°
2026-05-05 19:21 50.32891 0.13693 29336 ft 437 kts 147°
2026-05-05 19:21 50.30357 0.16302 29944 ft 437 kts 147°
2026-05-05 19:22 50.27810 0.18920 30401 ft 440 kts 147°
2026-05-05 19:22 50.25244 0.21555 30847 ft 442 kts 147°
2026-05-05 19:22 50.22664 0.24200 31295 ft 444 kts 147°
2026-05-05 19:22 50.20075 0.26851 31753 ft 447 kts 147°
2026-05-05 19:23 50.17474 0.29520 32213 ft 449 kts 146°
2026-05-05 19:23 50.14861 0.32208 32652 ft 451 kts 146°
2026-05-05 19:23 50.12232 0.34913 33078 ft 454 kts 146°
2026-05-05 19:23 50.09617 0.37598 33510 ft 456 kts 146°
2026-05-05 19:24 50.06962 0.40319 33927 ft 458 kts 146°
2026-05-05 19:24 50.04286 0.43057 34236 ft 463 kts 146°
2026-05-05 19:24 50.01587 0.45813 34518 ft 467 kts 146°
2026-05-05 19:24 49.98863 0.48592 34851 ft 470 kts 146°
2026-05-05 19:25 49.93409 0.54141 34904 ft 467 kts 146°
2026-05-05 19:25 49.87953 0.59679 34901 ft 469 kts 146°
2026-05-05 19:26 49.82713 0.65670 34892 ft 469 kts 140°
2026-05-05 19:26 49.77649 0.72089 34889 ft 470 kts 140°
2026-05-05 19:27 49.72576 0.78470 34881 ft 470 kts 140°
2026-05-05 19:27 49.67486 0.84844 34881 ft 470 kts 140°
2026-05-05 19:28 49.62405 0.91190 34873 ft 470 kts 141°
2026-05-05 19:28 49.57323 0.97517 34862 ft 470 kts 141°
2026-05-05 19:29 49.52272 1.03790 34859 ft 470 kts 141°
2026-05-05 19:29 49.47180 1.10097 34855 ft 470 kts 141°
2026-05-05 19:30 49.42088 1.16385 34852 ft 470 kts 141°
2026-05-05 19:30 49.36994 1.22660 34850 ft 469 kts 141°
2026-05-05 19:31 49.31898 1.28921 34850 ft 470 kts 141°
2026-05-05 19:31 49.26793 1.35178 34864 ft 469 kts 141°
2026-05-05 19:32 49.21691 1.41413 34859 ft 469 kts 141°
2026-05-05 19:32 49.16584 1.47636 34853 ft 469 kts 141°
2026-05-05 19:33 49.11478 1.53842 34851 ft 469 kts 141°
2026-05-05 19:33 49.06397 1.60002 34828 ft 469 kts 141°
2026-05-05 19:34 49.01278 1.66190 34832 ft 470 kts 141°
2026-05-05 19:35 48.93580 1.75463 34827 ft 470 kts 141°
2026-05-05 19:35 48.88449 1.81623 34844 ft 470 kts 141°
2026-05-05 19:36 48.83315 1.87772 34836 ft 470 kts 141°
2026-05-05 19:36 48.78171 1.93914 34835 ft 470 kts 141°
2026-05-05 19:37 48.73031 2.00037 34835 ft 470 kts 141°
2026-05-05 19:37 48.67882 2.06152 34837 ft 470 kts 141°
2026-05-05 19:38 48.62739 2.12245 34834 ft 470 kts 141°
2026-05-05 19:38 48.57584 2.18358 34807 ft 471 kts 140°
2026-05-05 19:39 48.52870 2.25210 34804 ft 471 kts 134°
2026-05-05 19:39 48.48285 2.32209 34812 ft 472 kts 134°
2026-05-05 19:40 48.43652 2.39230 34812 ft 473 kts 135°
2026-05-05 19:40 48.39001 2.46249 34790 ft 474 kts 135°
2026-05-05 19:41 48.34330 2.53278 34800 ft 476 kts 135°
2026-05-05 19:41 48.29492 2.60060 34790 ft 476 kts 142°
2026-05-05 19:42 48.23936 2.65456 34804 ft 477 kts 153°
2026-05-05 19:42 48.17968 2.69832 34808 ft 479 kts 152°
2026-05-05 19:43 48.12124 2.74649 34815 ft 480 kts 152°
2026-05-05 19:43 48.06167 2.79191 34832 ft 481 kts 157°
2026-05-05 19:44 47.99992 2.83101 34842 ft 481 kts 158°
2026-05-05 19:44 47.93824 2.87011 34851 ft 482 kts 158°
2026-05-05 19:45 47.88011 2.91907 34848 ft 484 kts 140°
2026-05-05 19:45 47.83379 2.99194 34848 ft 485 kts 133°
2026-05-05 19:46 47.78912 3.06618 34848 ft 484 kts 134°
2026-05-05 19:46 47.74314 3.13938 34847 ft 484 kts 135°
2026-05-05 19:47 47.69674 3.21204 34846 ft 484 kts 135°
2026-05-05 19:47 47.65032 3.28445 34857 ft 484 kts 135°
2026-05-05 19:48 47.60382 3.35682 34845 ft 484 kts 135°
2026-05-05 19:48 47.55731 3.42902 34853 ft 484 kts 135°
2026-05-05 19:49 47.51075 3.50112 34847 ft 485 kts 136°
2026-05-05 19:49 47.46407 3.57319 34853 ft 485 kts 136°
2026-05-05 19:50 47.41734 3.64513 34856 ft 485 kts 136°
2026-05-05 19:50 47.37056 3.71696 34859 ft 485 kts 136°
2026-05-05 19:51 47.32375 3.78864 34857 ft 485 kts 136°
2026-05-05 19:51 47.27718 3.85977 34860 ft 485 kts 136°
2026-05-05 19:52 47.23023 3.93127 34865 ft 485 kts 136°
2026-05-05 19:52 47.18327 4.00259 34864 ft 485 kts 136°
2026-05-05 19:53 47.13630 4.07374 34868 ft 485 kts 136°
2026-05-05 19:53 47.08925 4.14482 34876 ft 485 kts 136°
2026-05-05 19:54 47.04219 4.21572 34876 ft 485 kts 136°
2026-05-05 19:54 46.99508 4.28650 34876 ft 485 kts 136°
2026-05-05 19:55 46.94796 4.35710 34876 ft 484 kts 136°
2026-05-05 19:55 46.90083 4.42753 34871 ft 484 kts 137°
2026-05-05 19:56 46.85370 4.49780 34861 ft 484 kts 137°
2026-05-05 19:56 46.80653 4.56794 34869 ft 484 kts 137°
2026-05-05 19:57 46.75932 4.63791 34869 ft 484 kts 137°
2026-05-05 19:57 46.71207 4.70778 34868 ft 484 kts 137°
2026-05-05 19:58 46.66482 4.77745 34868 ft 483 kts 137°
2026-05-05 19:58 46.61750 4.84706 34873 ft 483 kts 137°
2026-05-05 19:59 46.57047 4.91606 34862 ft 483 kts 138°
2026-05-05 19:59 46.52301 4.98549 34860 ft 484 kts 138°
2026-05-05 20:00 46.47640 5.05612 34864 ft 487 kts 132°
2026-05-05 20:00 46.44181 5.14125 34864 ft 496 kts 115°
2026-05-05 20:01 46.42220 5.23770 34849 ft 500 kts 108°
2026-05-05 20:01 46.40430 5.33529 34852 ft 501 kts 109°
2026-05-05 20:02 46.37783 5.42761 34856 ft 493 kts 124°
2026-05-05 20:02 46.33764 5.50694 34872 ft 487 kts 135°
2026-05-05 20:03 46.29372 5.58102 34879 ft 488 kts 134°
2026-05-05 20:03 46.24968 5.65564 34885 ft 488 kts 135°
2026-05-05 20:04 46.20537 5.73039 34894 ft 489 kts 135°
2026-05-05 20:04 46.16100 5.80498 34905 ft 490 kts 135°
2026-05-05 20:05 46.11653 5.87953 34910 ft 491 kts 135°
2026-05-05 20:05 46.07951 5.94146 34918 ft 491 kts 135°